{"data":{"norad_id":58043,"intl_designator":"2023-156R","name":"STARLINK-30564","alt_names":[],"object_type":"PAYLOAD","status":"ACTIVE","operator":null,"country":"US","launch_date":"2023-10-09","launch_site_code":"AFWTR","launch_vehicle":null,"mission":null,"orbit_class":"UNKNOWN","rcs_meters":null,"size_class":null,"mass_kg":null,"dimensions":null,"purposes":["comms"],"wikipedia_slug":null,"has_3d_model":false,"image_url":null,"decayed_at":null,"tle_current":{"epoch":"2026-09-20T22:54:28.793088Z","epoch_age_seconds":98429,"freshness":"FRESH","line1":"1 58043U 23156R   26263.95449992 -.00292434  00000+0 -90845-2 0  9990","line2":"2 58043  53.1578 249.6766 0001944 117.3608 242.7593 15.34047782166236","mean_motion":15.34047782,"eccentricity":0.0001944,"inclination_deg":53.1578,"raan_deg":249.6766,"arg_perigee_deg":117.3608,"mean_anomaly_deg":242.7593,"bstar":-0.0090845,"rev_number":16623,"period_min":93.869305565086,"perigee_km":462.42024373291,"apogee_km":465.08036951772,"semimajor_km":6841.8873066253,"source":"CELESTRAK","updated_at":"2026-09-21T09:00:33.760783Z"}}}